Latest Weather Observations for Dennes Point

IDT60801

Issued at 3:05 pm EST Friday 25 April 2014 (issued every 30 minutes, with the page automatically refreshed every 10 minutes)

About weather observations | Map of weather stations | Latest weather observations for TAS | Other Formats
Station Details ID: 094255 Name: DENNES POINT Lat: -43.06 Lon: 147.36 Height: 5.67 m
Data from the previous 72 hours. | See also: Recent months at Dennes Point
Date/Time
EST
Temp
°C
App
Temp
°C
Dew
Point
Rel
Hum
%
Delta-T
°C
Wind Press
QNH
hPa
Press
MSL
hPa
Rain
since 9 am
mm
Dir
 
Spd
km/h
Gust
km/h
Spd
kts
Gust
kts
25/03:00pm 15.1 12.7 4.2 48 5.0 NE 6 7 3 4 1012.8 1012.8 0.0
25/02:30pm 15.3 12.7 4.1 47 5.2 N 7 9 4 5 1013.3 - 0.0
25/02:00pm 15.2 11.2 4.9 50 4.8 N 15 20 8 11 1013.7 1013.7 0.0
25/01:30pm 14.9 11.3 4.9 51 4.7 NW 13 24 7 13 1014.1 - 0.0
25/01:00pm 15.3 10.7 3.8 46 5.3 WNW 17 26 9 14 1014.6 1014.6 0.0
25/12:30pm 15.5 10.3 3.6 45 5.4 WNW 20 35 11 19 1015.2 - 0.0
25/12:00pm 14.7 10.2 4.4 50 4.8 NW 17 30 9 16 1015.7 1015.7 0.0
25/11:30am 14.3 10.0 3.2 47 5.0 NW 15 28 8 15 1016.1 - 0.0
25/11:00am 13.6 8.8 4.5 54 4.2 N 19 28 10 15 1016.7 1016.7 0.0
25/10:30am 12.6 7.6 6.4 66 2.9 N 22 28 12 15 1017.1 - 0.0
25/10:00am 12.1 7.1 6.4 68 2.7 N 22 26 12 14 1017.5 1017.5 0.0
25/09:30am 11.8 6.8 6.3 69 2.6 NNE 22 24 12 13 1017.7 - 0.0
25/09:00am 11.0 6.5 6.2 72 2.2 N 19 26 10 14 1018.0 1018.0 0.4
25/08:30am 10.4 5.3 6.2 75 2.0 N 22 30 12 16 1018.3 - 0.4
25/08:00am 10.3 6.3 5.1 70 2.3 N 15 22 8 12 1018.4 1018.4 0.4
25/07:30am 9.4 5.7 4.2 70 2.3 N 13 15 7 8 1018.3 - 0.4
25/07:00am 9.4 5.7 4.6 72 2.1 N 13 17 7 9 1017.9 1017.9 0.4
25/06:30am 9.3 5.5 4.1 70 2.3 NNW 13 17 7 9 1018.0 - 0.4
25/06:00am 10.0 6.3 4.2 67 2.6 N 13 17 7 9 1018.0 1018.0 0.4
25/05:30am 10.0 6.3 4.4 68 2.5 N 13 20 7 11 1017.9 - 0.4
25/05:00am 10.0 6.8 3.1 62 3.0 N 9 11 5 6 1018.0 1018.0 0.4
25/04:30am 10.2 7.0 2.8 60 3.2 NNW 9 15 5 8 1017.7 - 0.4
25/04:00am 10.0 4.8 2.6 60 3.1 WNW 19 24 10 13 1017.6 1017.6 0.4
25/03:30am 9.9 4.5 2.7 61 3.1 WNW 20 26 11 14 1017.3 - 0.4
25/03:00am 9.6 6.3 2.5 61 3.0 NW 9 19 5 10 1017.4 1017.4 0.4
25/02:30am 9.6 5.8 2.0 59 3.2 NNW 11 19 6 10 1017.4 - 0.4
25/02:00am 9.8 5.4 2.9 62 3.0 NW 15 26 8 14 1017.6 1017.6 0.4
25/01:30am 10.1 5.6 2.2 58 3.3 NW 15 26 8 14 1017.5 - 0.4
25/01:00am 10.2 6.0 1.8 56 3.5 NNW 13 20 7 11 1017.5 1017.5 0.4
25/12:30am 10.1 5.0 2.9 61 3.1 WNW 19 26 10 14 1017.3 - 0.4
25/12:00am 10.1 4.5 3.2 62 3.0 WNW 22 30 12 16 1017.2 1017.2 0.4
 
Date/Time
EST
Temp
°C
App
Temp
°C
Dew
Point
Rel
Hum
%
Delta-T
°C
Wind Press
QNH
hPa
Press
MSL
hPa
Rain
since 9 am
mm
Dir
 
Spd
km/h
Gust
km/h
Spd
kts
Gust
kts
24/11:30pm 10.2 4.8 2.6 59 3.2 WNW 20 24 11 13 1017.2 - 0.4
24/11:00pm 9.8 5.6 1.9 58 3.3 NW 13 20 7 11 1017.2 1017.2 0.4
24/10:30pm 9.7 6.1 3.0 63 2.9 NW 11 13 6 7 1017.0 - 0.4
24/10:00pm 9.3 2.6 3.5 67 2.5 W 28 33 15 18 1016.6 1016.6 0.4
24/09:30pm 9.1 2.0 3.5 68 2.4 W 30 37 16 20 1016.1 - 0.4
24/09:29pm 9.1 2.4 3.9 70 2.3 W 28 33 15 18 1016.1 - 0.4
24/09:00pm 8.4 5.6 2.0 64 2.6 W 6 13 3 7 1016.3 1016.3 0.4
24/08:30pm 9.3 4.1 3.5 67 2.5 W 20 28 11 15 1015.7 - 0.4
24/08:00pm 9.2 2.7 2.5 63 2.8 W 26 35 14 19 1014.9 1014.9 0.4
24/07:30pm 9.1 4.4 3.3 67 2.5 NW 17 20 9 11 1014.8 - 0.4
24/07:00pm 8.2 5.1 1.6 63 2.7 WSW 7 13 4 7 1014.6 1014.6 0.4
24/06:30pm 8.9 3.7 2.5 64 2.7 WSW 19 28 10 15 1014.0 - 0.4
24/06:00pm 8.8 3.1 2.8 66 2.5 W 22 30 12 16 1013.0 1013.0 0.4
24/05:30pm 8.7 2.4 3.5 70 2.2 W 26 37 14 20 1012.3 - 0.4
24/05:00pm 9.3 1.2 3.1 65 2.7 W 35 44 19 24 1011.5 1011.5 0.4
24/04:30pm 9.5 1.9 3.9 68 2.5 WSW 33 46 18 25 1011.0 - 0.4
24/04:17pm 9.9 3.2 3.4 64 2.8 W 28 54 15 29 1011.0 - 0.4
24/04:00pm 10.0 3.7 3.7 65 2.8 W 26 33 14 18 1010.6 1010.6 0.4
24/03:46pm 9.8 3.8 3.5 65 2.7 WNW 24 26 13 14 1010.3 - 0.4
24/03:34pm 10.2 1.1 3.9 65 2.8 WSW 41 59 22 32 1010.1 - 0.4
24/03:30pm 9.8 0.0 3.3 64 2.8 WSW 44 59 24 32 1010.0 - 0.4
24/03:17pm 10.4 2.7 2.5 58 3.4 W 32 52 17 28 1009.7 - 0.4
24/03:00pm 11.3 4.1 2.9 56 3.7 WSW 30 39 16 21 1009.3 1009.3 0.4
24/02:30pm 10.8 2.3 3.4 60 3.2 W 37 48 20 26 1008.9 - 0.4
24/02:00pm 9.9 0.9 4.3 68 2.5 W 41 56 22 30 1008.5 1008.4 0.4
24/01:51pm 8.2 -3.0 4.0 75 1.8 W 52 70 28 38 1008.4 - 0.4
24/01:39pm 9.6 -3.7 3.8 67 2.5 W 63 76 34 41 1008.0 - 0.4
24/01:37pm 10.5 1.4 4.0 64 2.9 W 41 63 22 34 1008.0 - 0.4
24/01:30pm 11.0 1.9 4.2 63 3.0 W 41 50 22 27 1007.6 - 0.4
24/01:00pm 9.9 2.7 5.7 75 1.9 W 33 43 18 23 1007.7 1007.6 0.4
24/12:56pm 9.3 1.7 5.7 78 1.6 W 35 41 19 22 1007.9 - 0.4
24/12:49pm 9.2 -2.7 4.4 72 2.1 W 56 67 30 36 1007.5 - 0.4
24/12:44pm 10.6 2.4 4.5 66 2.7 W 37 57 20 31 1007.2 - 0.4
24/12:30pm 11.0 2.1 3.1 58 3.4 W 39 56 21 30 1006.6 - 0.4
24/12:28pm 10.9 2.3 2.7 57 3.5 W 37 56 20 30 1006.5 - 0.4
24/12:00pm 12.4 3.8 4.6 59 3.6 W 39 56 21 30 1006.2 1006.1 0.4
24/11:30am 11.1 2.1 4.3 63 3.0 W 41 50 22 27 1005.7 - 0.4
24/11:07am 10.2 2.8 5.0 70 2.3 W 33 52 18 28 1005.5 - 0.4
24/11:00am 10.0 1.5 5.0 71 2.3 W 39 54 21 29 1005.7 1005.6 0.4
24/10:30am 10.1 2.3 4.9 70 2.3 W 35 48 19 26 1005.2 - 0.4
24/10:00am 9.9 4.4 6.1 77 1.8 W 24 37 13 20 1004.6 1004.5 0.4
24/09:37am 8.4 -0.7 5.7 83 1.2 W 43 63 23 34 1004.2 - 0.4
24/09:30am 9.0 -2.2 6.1 82 1.3 W 54 69 29 37 1004.3 - 0.2
24/09:23am 10.2 -1.6 5.6 73 2.1 W 57 69 31 37 1003.8 - 0.0
24/09:20am 10.7 2.3 5.5 70 2.4 W 39 61 21 33 1003.7 - 0.0
24/09:00am 10.6 2.8 4.9 68 2.6 W 35 46 19 25 1003.3 1003.2 0.6
24/08:30am 11.3 5.6 5.0 65 2.9 W 24 37 13 20 1002.9 - 0.6
24/08:00am 10.4 5.2 5.4 71 2.3 W 22 28 12 15 1002.5 1002.4 0.6
24/07:30am 11.0 5.8 5.3 68 2.6 W 22 35 12 19 1001.6 - 0.6
24/07:00am 11.0 7.0 4.9 66 2.8 WSW 15 24 8 13 1000.3 1000.3 0.6
24/06:30am 11.2 8.0 4.9 65 2.9 WNW 11 17 6 9 1000.0 - 0.6
24/06:00am 11.2 6.7 6.1 71 2.4 NNW 19 28 10 15 1000.6 1000.6 0.6
24/05:30am 10.8 4.9 5.8 71 2.3 WNW 26 41 14 22 1000.3 - 0.6
24/05:00am 11.0 4.0 6.2 72 2.3 W 32 48 17 26 999.9 999.9 0.6
24/04:30am 11.9 5.4 8.0 77 1.9 W 32 44 17 24 1000.1 - 0.6
24/04:27am 12.2 5.2 8.3 77 1.9 W 35 56 19 30 1000.0 - 0.6
24/04:19am 12.5 3.6 7.8 73 2.3 W 44 56 24 30 999.5 - 0.4
24/04:15am 13.4 4.7 8.3 71 2.5 WNW 44 65 24 35 999.5 - 0.4
24/04:00am 14.6 9.4 9.0 69 2.9 N 26 33 14 18 997.8 997.8 0.0
24/03:30am 14.5 9.6 8.5 67 3.0 N 24 30 13 16 997.3 - 0.0
24/03:00am 14.4 10.3 8.8 69 2.9 N 20 24 11 13 998.4 998.4 0.0
24/02:30am 14.1 10.9 8.5 69 2.8 N 15 20 8 11 999.1 - 0.0
24/02:00am 14.2 10.3 7.3 63 3.4 N 17 24 9 13 1000.3 1000.3 0.0
24/01:30am 14.2 12.2 7.0 62 3.5 NNW 7 11 4 6 1001.2 - 0.0
24/01:00am 14.8 9.8 6.4 57 4.1 N 22 30 12 16 1002.2 1002.1 0.0
24/12:44am 14.9 8.8 6.7 58 4.0 NNW 28 46 15 25 1002.2 - 0.0
24/12:30am 15.0 7.8 7.5 61 3.7 NNW 35 44 19 24 1002.4 - 0.0
24/12:00am 15.0 7.1 7.8 62 3.6 N 39 44 21 24 1002.5 1002.4 0.0
 
Date/Time
EST
Temp
°C
App
Temp
°C
Dew
Point
Rel
Hum
%
Delta-T
°C
Wind Press
QNH
hPa
Press
MSL
hPa
Rain
since 9 am
mm
Dir
 
Spd
km/h
Gust
km/h
Spd
kts
Gust
kts
23/11:30pm 14.5 9.2 6.8 60 3.7 NW 24 33 13 18 1003.0 - 0.0
23/11:00pm 14.4 10.9 7.2 62 3.5 N 15 28 8 15 1003.6 1003.5 0.0
23/10:30pm 13.9 9.7 8.3 69 2.8 NNE 20 30 11 16 1004.4 - 0.0
23/10:00pm 14.2 8.3 7.7 65 3.2 NNE 28 37 15 20 1005.0 1004.9 0.0
23/09:30pm 14.6 8.6 8.5 67 3.1 NNE 30 37 16 20 1005.5 - 0.0
23/09:00pm 15.0 10.3 7.8 62 3.6 NNE 22 30 12 16 1005.9 1005.8 0.0
23/08:30pm 14.9 10.7 7.5 61 3.7 N 19 26 10 14 1006.1 - 0.0
23/08:00pm 15.3 10.3 6.6 56 4.2 N 22 33 12 18 1006.6 1006.5 0.0
23/07:30pm 15.3 11.6 7.8 61 3.7 N 17 20 9 11 1006.9 - 0.0
23/07:00pm 15.4 11.1 6.9 57 4.2 N 19 22 10 12 1007.0 1006.9 0.0
23/06:30pm 15.2 12.2 6.0 54 4.4 NNW 11 15 6 8 1007.2 - 0.0
23/06:00pm 15.1 12.2 6.7 57 4.1 NNW 11 13 6 7 1007.5 1007.4 0.0
23/05:30pm 15.5 12.6 6.5 55 4.4 NNW 11 15 6 8 1007.5 - 0.0
23/05:00pm 15.8 12.7 7.3 57 4.2 N 13 19 7 10 1007.6 1007.5 0.0
23/04:30pm 16.0 13.3 7.5 57 4.2 N 11 15 6 8 1008.1 - 0.0
23/04:00pm 15.9 14.7 7.9 59 4.0 NNW 4 9 2 5 1008.3 1008.2 0.0
23/03:30pm 16.0 14.6 8.7 62 3.7 N 6 7 3 4 1008.5 - 0.0
23/03:00pm 15.8 14.1 8.5 62 3.7 N 7 11 4 6 1008.8 1008.7 0.0
23/02:30pm 16.3 13.4 6.7 53 4.7 NNW 11 17 6 9 1009.1 - 0.0
23/02:00pm 16.2 12.1 6.3 52 4.8 WNW 17 24 9 13 1009.7 1009.7 0.0
23/01:30pm 15.9 13.4 8.2 60 3.9 N 11 17 6 9 1010.0 - 0.0
23/01:00pm 15.8 11.3 6.8 55 4.4 N 20 26 11 14 1010.3 1010.3 0.0
23/12:30pm 15.6 11.4 8.1 61 3.8 N 20 28 11 15 1010.6 - 0.0
23/12:00pm 15.0 11.9 7.1 59 3.9 N 13 17 7 9 1011.2 1011.2 0.0
23/11:30am 14.4 9.7 7.7 64 3.3 N 22 26 12 14 1011.7 - 0.0
23/11:00am 14.0 10.0 8.4 69 2.8 NNE 19 24 10 13 1012.1 1012.1 0.0
23/10:30am 13.8 10.2 8.4 70 2.7 NNE 17 22 9 12 1012.4 - 0.0
23/10:00am 13.1 8.5 8.0 71 2.5 N 22 26 12 14 1013.0 1013.0 0.0
23/09:30am 12.4 7.7 7.7 73 2.3 N 22 28 12 15 1013.5 - 0.0
23/09:00am 12.6 9.6 7.9 73 2.3 NNE 13 22 7 12 1013.6 1013.6 0.0
23/08:30am 11.6 9.7 6.5 71 2.4 SSW 6 11 3 6 1013.8 - 0.0
23/08:00am 11.1 9.3 7.0 76 2.0 SW 6 9 3 5 1013.8 1013.8 0.0
23/07:30am 11.8 8.6 6.9 72 2.3 N 13 17 7 9 1013.5 - 0.0
23/07:00am 9.9 7.7 6.3 78 1.7 SSW 7 9 4 5 1013.6 1013.6 0.0
23/06:30am 11.7 8.9 5.3 65 2.9 NNW 9 11 5 6 1013.4 - 0.0
23/06:00am 10.3 8.4 4.9 69 2.4 W 4 7 2 4 1013.6 1013.6 0.0
23/05:30am 10.0 7.5 5.0 71 2.3 SSW 7 9 4 5 1013.7 - 0.0
23/05:00am 9.5 7.1 6.9 84 1.2 S 9 13 5 7 1013.6 1013.6 0.0
23/04:30am 9.0 6.5 6.6 85 1.1 S 9 11 5 6 1013.5 - 0.0
23/04:00am 9.8 7.9 7.4 85 1.1 SSW 7 9 4 5 1013.4 1013.4 0.0
23/03:30am 10.3 8.4 7.4 82 1.4 SSW 7 9 4 5 1013.2 - 0.0
23/03:00am 10.5 8.3 6.3 75 2.0 SSW 7 9 4 5 1013.3 1013.3 0.0
23/02:30am 11.4 10.4 5.5 67 2.7 CALM 0 4 0 2 1013.3 - 0.0
23/02:00am 11.0 9.0 6.4 73 2.2 W 6 9 3 5 1013.4 1013.4 0.0
23/01:30am 11.2 9.4 5.5 68 2.6 W 4 7 2 4 1013.2 - 0.0
23/01:00am 11.8 9.6 6.1 68 2.7 W 7 11 4 6 1013.2 1013.2 0.0
23/12:30am 12.7 10.6 6.5 66 3.0 NW 7 11 4 6 1013.2 - 0.0
23/12:00am 11.8 10.4 5.4 65 3.0 SSE 2 7 1 4 1013.1 1013.1 0.0
 
Date/Time
EST
Temp
°C
App
Temp
°C
Dew
Point
Rel
Hum
%
Delta-T
°C
Wind Press
QNH
hPa
Press
MSL
hPa
Rain
since 9 am
mm
Dir
 
Spd
km/h
Gust
km/h
Spd
kts
Gust
kts
22/11:30pm 12.8 10.5 4.8 58 3.7 NW 6 9 3 5 1013.2 - 0.0
22/11:00pm 13.3 10.8 4.5 55 4.0 NW 7 11 4 6 1013.0 1013.0 0.0
22/10:30pm 12.9 8.9 4.8 58 3.7 W 15 20 8 11 1013.0 - 0.0
22/10:00pm 13.4 9.8 5.1 57 3.9 NW 13 19 7 10 1012.8 1012.8 0.0
22/09:30pm 13.5 9.1 4.9 56 4.0 NW 17 24 9 13 1012.4 - 0.0
22/09:00pm 13.5 9.0 4.4 54 4.2 W 17 22 9 12 1012.2 1012.2 0.0
22/08:30pm 13.6 7.6 5.5 58 3.8 W 26 35 14 19 1011.7 - 0.0
22/08:00pm 13.6 8.2 6.2 61 3.5 WSW 24 32 13 17 1011.5 1011.5 0.0
22/07:30pm 13.9 8.9 6.3 60 3.6 WSW 22 30 12 16 1011.3 - 0.0
22/07:00pm 14.2 8.9 7.0 62 3.5 WSW 24 32 13 17 1010.8 1010.8 0.0
22/06:30pm 14.8 12.1 5.6 54 4.4 WNW 9 13 5 7 1010.2 - 0.0
22/06:00pm 14.8 12.5 5.9 55 4.3 WNW 7 11 4 6 1009.6 1009.6 0.0
22/05:30pm 15.0 11.3 4.7 50 4.8 WNW 13 19 7 10 1009.1 - 0.0
22/05:00pm 14.9 10.7 4.0 48 5.0 W 15 24 8 13 1008.8 1008.7 0.0
22/04:30pm 15.5 10.2 4.8 49 5.0 W 22 32 12 17 1008.5 - 0.0
22/04:00pm 16.0 9.1 4.4 46 5.4 W 30 41 16 22 1008.2 1008.1 0.0
22/03:30pm 16.2 8.3 4.6 46 5.5 W 35 57 19 31 1008.2 - 0.0
22/03:24pm 16.3 8.8 4.7 46 5.5 W 33 54 18 29 1008.2 - 0.0

Other Formats:

Comma delimited format used in spreadsheet applications
http://www.bom.gov.au/fwo/IDT60801/IDT60801.94988.axf

JavaScript Object Notation format (JSON) in row-major order
http://www.bom.gov.au/fwo/IDT60801/IDT60801.94988.json